SIA192 HKJK-HUEN

Flight info

Callsign SIA192
Flight time 0h 49m
Altitude 32000
Route IBRAT3E APKUB UQ293 IMPOG IMPOG2A
Aircraft B38M/M-SDE1FGHILORVWXY/HB1

Departure

Time 2026-04-26 11:55
Airport Jomo Kenyatta International Airport (HKJK)

Arrival

Time 2026-04-26 12:45
Airport Entebbe International Airport (HUEN)
Time Latitude Longitude Altitude Speed Heading
2026-04-26 11:10 -1.32884 36.92363 5342 ft 0 kts 140°
2026-04-26 11:43 -1.32875 36.92355 5344 ft 4 kts 140°
2026-04-26 11:43 -1.32856 36.92339 5342 ft 2 kts 140°
2026-04-26 11:43 -1.32838 36.92326 5342 ft 4 kts 165°
2026-04-26 11:44 -1.32820 36.92331 5342 ft 3 kts 233°
2026-04-26 11:44 -1.32805 36.92352 5342 ft 3 kts 238°
2026-04-26 11:44 -1.32803 36.92355 5342 ft 0 kts 238°
2026-04-26 11:49 -1.32822 36.92327 5345 ft 9 kts 233°
2026-04-26 11:49 -1.32849 36.92268 5343 ft 10 kts 277°
2026-04-26 11:49 -1.32810 36.92217 5343 ft 10 kts 325°
2026-04-26 11:49 -1.32790 36.92161 5347 ft 9 kts 252°
2026-04-26 11:50 -1.32812 36.92126 5344 ft 9 kts 234°
2026-04-26 11:50 -1.32851 36.92072 5345 ft 10 kts 235°
2026-04-26 11:50 -1.32891 36.92014 5346 ft 10 kts 237°
2026-04-26 11:50 -1.32960 36.91921 5348 ft 15 kts 232°
2026-04-26 11:51 -1.32995 36.91833 5349 ft 14 kts 287°
2026-04-26 11:51 -1.32954 36.91788 5349 ft 13 kts 327°
2026-04-26 11:51 -1.32877 36.91735 5351 ft 14 kts 326°
2026-04-26 11:51 -1.32797 36.91680 5351 ft 14 kts 325°
2026-04-26 11:52 -1.32726 36.91686 5350 ft 0 kts 51°
2026-04-26 11:54 -1.32725 36.91687 5348 ft 0 kts 51°
2026-04-26 11:54 -1.32677 36.91751 5349 ft 43 kts 53°
2026-04-26 11:54 -1.32352 36.92195 5342 ft 114 kts 54°
2026-04-26 11:55 -1.31760 36.93003 5319 ft 173 kts 54°
2026-04-26 11:55 -1.30983 36.94089 5568 ft 206 kts 54°
2026-04-26 11:55 -1.30101 36.95239 6427 ft 211 kts 54°
2026-04-26 11:55 -1.29186 36.96391 7272 ft 215 kts 53°
2026-04-26 11:56 -1.28209 36.97617 7703 ft 237 kts 53°
2026-04-26 11:56 -1.27139 36.98967 8154 ft 258 kts 52°
2026-04-26 11:56 -1.25990 37.00405 8884 ft 266 kts 48°
2026-04-26 11:56 -1.24409 37.01366 9786 ft 272 kts 13°
2026-04-26 11:57 -1.22497 37.01342 10446 ft 287 kts 342°
2026-04-26 11:57 -1.20758 37.00280 10895 ft 305 kts 312°
2026-04-26 11:57 -1.19649 36.98420 11315 ft 324 kts 287°
2026-04-26 11:57 -1.19295 36.96136 11705 ft 343 kts 276°
2026-04-26 11:58 -1.18996 36.93710 12057 ft 361 kts 277°
2026-04-26 11:58 -1.18656 36.91173 12527 ft 373 kts 278°
2026-04-26 11:58 -1.18329 36.88583 13212 ft 379 kts 277°
2026-04-26 11:58 -1.18003 36.85960 13938 ft 382 kts 277°
2026-04-26 11:59 -1.17685 36.83319 14585 ft 385 kts 277°
2026-04-26 11:59 -1.17366 36.80647 15169 ft 388 kts 277°
2026-04-26 11:59 -1.17049 36.77962 15796 ft 391 kts 277°
2026-04-26 11:59 -1.16729 36.75252 16324 ft 396 kts 277°
2026-04-26 12:00 -1.16513 36.73443 16691 ft 398 kts 277°
2026-04-26 12:00 -1.16076 36.69730 17316 ft 405 kts 277°
2026-04-26 12:00 -1.15740 36.66937 17972 ft 406 kts 277°
2026-04-26 12:00 -1.15411 36.64119 18459 ft 411 kts 277°
2026-04-26 12:01 -1.15074 36.61282 18946 ft 412 kts 277°
2026-04-26 12:01 -1.14737 36.58421 19355 ft 416 kts 277°
2026-04-26 12:01 -1.14394 36.55543 19803 ft 417 kts 277°
2026-04-26 12:01 -1.14054 36.52650 20204 ft 421 kts 277°
2026-04-26 12:02 -1.13709 36.49737 20631 ft 423 kts 277°
2026-04-26 12:02 -1.13365 36.46814 21067 ft 425 kts 277°
2026-04-26 12:02 -1.13019 36.43873 21465 ft 427 kts 277°
2026-04-26 12:02 -1.12670 36.40914 21878 ft 430 kts 277°
2026-04-26 12:03 -1.12324 36.37976 22286 ft 433 kts 277°
2026-04-26 12:03 -1.11964 36.34985 22653 ft 435 kts 279°
2026-04-26 12:03 -1.11197 36.32062 23017 ft 435 kts 294°
2026-04-26 12:03 -1.09980 36.29286 23391 ft 438 kts 294°
2026-04-26 12:04 -1.08829 36.26461 23730 ft 440 kts 293°
2026-04-26 12:04 -1.07687 36.23614 24028 ft 443 kts 293°
2026-04-26 12:04 -1.06547 36.20745 24302 ft 446 kts 293°
2026-04-26 12:04 -1.05405 36.17861 24609 ft 448 kts 293°
2026-04-26 12:05 -1.04257 36.14958 24933 ft 449 kts 293°
2026-04-26 12:05 -1.03103 36.12044 25227 ft 451 kts 293°
2026-04-26 12:05 -1.01950 36.09126 25513 ft 453 kts 293°
2026-04-26 12:05 -1.00789 36.06191 25814 ft 455 kts 293°
2026-04-26 12:06 -0.99624 36.03247 26126 ft 456 kts 292°
2026-04-26 12:06 -0.98468 36.00327 26404 ft 458 kts 293°
2026-04-26 12:06 -0.97279 35.97321 26696 ft 460 kts 292°
2026-04-26 12:06 -0.96118 35.94388 26992 ft 461 kts 292°
2026-04-26 12:07 -0.94935 35.91399 27264 ft 463 kts 292°
2026-04-26 12:07 -0.93749 35.88402 27546 ft 465 kts 293°
2026-04-26 12:07 -0.92559 35.85395 27806 ft 467 kts 292°
2026-04-26 12:07 -0.91366 35.82377 28125 ft 467 kts 292°
2026-04-26 12:08 -0.90167 35.79347 28388 ft 469 kts 292°
2026-04-26 12:08 -0.88964 35.76308 28657 ft 471 kts 292°
2026-04-26 12:08 -0.87756 35.73258 28875 ft 473 kts 292°
2026-04-26 12:08 -0.86542 35.70190 29088 ft 476 kts 292°
2026-04-26 12:09 -0.85321 35.67104 29361 ft 478 kts 292°
2026-04-26 12:09 -0.84097 35.64012 29573 ft 480 kts 292°
2026-04-26 12:09 -0.82869 35.60909 29810 ft 482 kts 292°
2026-04-26 12:09 -0.81634 35.57789 30042 ft 483 kts 292°
2026-04-26 12:10 -0.80396 35.54662 30249 ft 485 kts 292°
2026-04-26 12:10 -0.79152 35.51520 30446 ft 487 kts 292°
2026-04-26 12:10 -0.77905 35.48369 30668 ft 487 kts 292°
2026-04-26 12:10 -0.76657 35.45217 30921 ft 487 kts 292°
2026-04-26 12:11 -0.75412 35.42070 31146 ft 487 kts 292°
2026-04-26 12:11 -0.74164 35.38918 31431 ft 487 kts 292°
2026-04-26 12:11 -0.72918 35.35772 31717 ft 486 kts 292°
2026-04-26 12:11 -0.71690 35.32673 32081 ft 473 kts 293°
2026-04-26 12:12 -0.70486 35.29631 32105 ft 468 kts 293°
2026-04-26 12:12 -0.68114 35.23641 32065 ft 462 kts 292°
2026-04-26 12:13 -0.65748 35.17668 32062 ft 463 kts 292°
2026-04-26 12:13 -0.63379 35.11683 32048 ft 463 kts 292°
2026-04-26 12:14 -0.61009 35.05699 32038 ft 463 kts 293°
2026-04-26 12:14 -0.58639 34.99713 32023 ft 463 kts 293°
2026-04-26 12:15 -0.56263 34.93713 32005 ft 465 kts 293°
2026-04-26 12:15 -0.53885 34.87707 32003 ft 465 kts 293°
2026-04-26 12:16 -0.51508 34.81705 31988 ft 465 kts 293°
2026-04-26 12:16 -0.49128 34.75696 31967 ft 465 kts 293°
2026-04-26 12:17 -0.46765 34.69730 31954 ft 465 kts 293°
2026-04-26 12:17 -0.44386 34.63722 31957 ft 465 kts 293°
2026-04-26 12:18 -0.42009 34.57721 31950 ft 464 kts 293°
2026-04-26 12:18 -0.39633 34.51723 31954 ft 464 kts 293°
2026-04-26 12:19 -0.37150 34.45767 31938 ft 463 kts 294°
2026-04-26 12:19 -0.34637 34.39833 31946 ft 464 kts 294°
2026-04-26 12:20 -0.32126 34.33893 31954 ft 464 kts 294°
2026-04-26 12:20 -0.29617 34.27957 31953 ft 464 kts 294°
2026-04-26 12:21 -0.27104 34.22015 31950 ft 464 kts 294°
2026-04-26 12:21 -0.24594 34.16077 31959 ft 464 kts 294°
2026-04-26 12:22 -0.22098 34.10171 31956 ft 464 kts 294°
2026-04-26 12:22 -0.19585 34.04228 31953 ft 464 kts 294°
2026-04-26 12:22 -0.18328 34.01255 31817 ft 464 kts 294°
2026-04-26 12:23 -0.17069 33.98287 31591 ft 464 kts 294°
2026-04-26 12:23 -0.15802 33.95326 31354 ft 464 kts 294°
2026-04-26 12:23 -0.14535 33.92362 31123 ft 464 kts 294°
2026-04-26 12:23 -0.13266 33.89394 30901 ft 464 kts 294°
2026-04-26 12:24 -0.11998 33.86427 30667 ft 465 kts 294°
2026-04-26 12:24 -0.10730 33.83459 30443 ft 465 kts 294°
2026-04-26 12:24 -0.09458 33.80483 30220 ft 466 kts 294°
2026-04-26 12:25 -0.06911 33.74525 29729 ft 467 kts 294°
2026-04-26 12:25 -0.05636 33.71540 29466 ft 467 kts 294°
2026-04-26 12:25 -0.04360 33.68555 29212 ft 468 kts 294°
2026-04-26 12:25 -0.03080 33.65560 28947 ft 469 kts 294°
2026-04-26 12:26 -0.01799 33.62561 28689 ft 470 kts 294°
2026-04-26 12:26 -0.00516 33.59559 28436 ft 470 kts 294°
2026-04-26 12:26 0.00770 33.56551 28172 ft 468 kts 294°
2026-04-26 12:26 0.02032 33.53598 27480 ft 458 kts 294°
2026-04-26 12:27 0.03156 33.50655 26732 ft 450 kts 290°
2026-04-26 12:27 0.04168 33.47753 26343 ft 433 kts 290°
2026-04-26 12:27 0.05155 33.44968 25999 ft 418 kts 291°
2026-04-26 12:27 0.06117 33.42276 25654 ft 404 kts 291°
2026-04-26 12:28 0.07047 33.39679 25311 ft 392 kts 291°
2026-04-26 12:28 0.07959 33.37135 24967 ft 386 kts 291°
2026-04-26 12:28 0.08862 33.34617 24624 ft 384 kts 291°
2026-04-26 12:28 0.09750 33.32141 24311 ft 383 kts 291°
2026-04-26 12:29 0.10647 33.29641 23855 ft 384 kts 290°
2026-04-26 12:29 0.11555 33.27107 23071 ft 390 kts 290°
2026-04-26 12:29 0.13377 33.22028 21702 ft 383 kts 290°
2026-04-26 12:30 0.14273 33.19528 21305 ft 372 kts 290°
2026-04-26 12:30 0.15134 33.17129 20923 ft 361 kts 290°
2026-04-26 12:30 0.15975 33.14783 20526 ft 358 kts 290°
2026-04-26 12:31 0.17639 33.10144 19744 ft 355 kts 290°
2026-04-26 12:31 0.18469 33.07827 19350 ft 353 kts 290°
2026-04-26 12:31 0.19295 33.05526 18967 ft 351 kts 290°
2026-04-26 12:31 0.20117 33.03233 18590 ft 351 kts 290°
2026-04-26 12:32 0.20941 33.00933 18187 ft 352 kts 290°
2026-04-26 12:32 0.21767 32.98630 17753 ft 352 kts 290°
2026-04-26 12:32 0.23418 32.94030 16956 ft 350 kts 290°
2026-04-26 12:33 0.24238 32.91740 16573 ft 349 kts 290°
2026-04-26 12:33 0.25059 32.89453 16186 ft 349 kts 290°
2026-04-26 12:33 0.25873 32.87184 15948 ft 343 kts 290°
2026-04-26 12:33 0.26666 32.84971 15990 ft 335 kts 290°
2026-04-26 12:34 0.27177 32.83546 15985 ft 323 kts 290°
2026-04-26 12:34 0.27930 32.81447 15370 ft 324 kts 290°
2026-04-26 12:34 0.28681 32.79352 15017 ft 315 kts 290°
2026-04-26 12:34 0.29413 32.77310 14666 ft 308 kts 290°
2026-04-26 12:35 0.29887 32.75254 14267 ft 302 kts 270°
2026-04-26 12:35 0.29680 32.73186 13899 ft 296 kts 262°
2026-04-26 12:35 0.29419 32.71159 13468 ft 293 kts 262°
2026-04-26 12:35 0.29151 32.69136 12937 ft 293 kts 262°
2026-04-26 12:36 0.28878 32.67136 12471 ft 289 kts 262°
2026-04-26 12:36 0.28602 32.65147 11872 ft 290 kts 262°
2026-04-26 12:36 0.28325 32.63167 11263 ft 286 kts 262°
2026-04-26 12:36 0.28049 32.61209 10698 ft 282 kts 261°
2026-04-26 12:37 0.27780 32.59287 10163 ft 277 kts 261°
2026-04-26 12:37 0.27514 32.57394 9610 ft 273 kts 261°
2026-04-26 12:37 0.27252 32.55532 9046 ft 268 kts 261°
2026-04-26 12:37 0.26997 32.53718 8672 ft 260 kts 261°
2026-04-26 12:38 0.26749 32.51956 8300 ft 251 kts 261°
2026-04-26 12:38 0.26510 32.50259 7931 ft 243 kts 260°
2026-04-26 12:38 0.26279 32.48614 7554 ft 236 kts 261°
2026-04-26 12:38 0.26053 32.47008 7143 ft 231 kts 260°
2026-04-26 12:39 0.25831 32.45430 6770 ft 228 kts 260°
2026-04-26 12:39 0.25613 32.43881 6434 ft 222 kts 260°
2026-04-26 12:39 0.25165 32.42451 6103 ft 213 kts 235°
2026-04-26 12:39 0.24112 32.41494 5763 ft 202 kts 202°
2026-04-26 12:40 0.22797 32.41244 5580 ft 185 kts 178°
2026-04-26 12:40 0.21521 32.41365 5591 ft 180 kts 172°
2026-04-26 12:40 0.20346 32.41535 5587 ft 163 kts 172°
2026-04-26 12:40 0.19185 32.41701 5640 ft 175 kts 172°
2026-04-26 12:41 0.17934 32.41878 5631 ft 187 kts 171°
2026-04-26 12:41 0.16628 32.42063 5609 ft 191 kts 172°
2026-04-26 12:41 0.15306 32.42248 5571 ft 188 kts 172°
2026-04-26 12:41 0.14103 32.42417 5416 ft 166 kts 172°
2026-04-26 12:42 0.12997 32.42572 5251 ft 157 kts 172°
2026-04-26 12:42 0.11933 32.42721 5120 ft 154 kts 171°
2026-04-26 12:42 0.10873 32.42871 4956 ft 154 kts 172°
2026-04-26 12:42 0.09816 32.43018 4710 ft 151 kts 171°
2026-04-26 12:43 0.08793 32.43164 4496 ft 148 kts 173°
2026-04-26 12:43 0.07777 32.43304 4260 ft 147 kts 173°
2026-04-26 12:43 0.06774 32.43450 4059 ft 144 kts 175°
2026-04-26 12:43 0.05784 32.43583 3873 ft 143 kts 174°
2026-04-26 12:44 0.04836 32.43719 3791 ft 125 kts 173°
2026-04-26 12:44 0.04128 32.43818 3787 ft 81 kts 172°
2026-04-26 12:44 0.03610 32.43890 3785 ft 73 kts 172°
2026-04-26 12:44 0.03143 32.43955 3787 ft 55 kts 172°
2026-04-26 12:45 0.02913 32.44037 3788 ft 29 kts 140°
2026-04-26 12:45 0.02822 32.44150 3787 ft 17 kts 72°
2026-04-26 12:45 0.02866 32.44168 3784 ft 7 kts 351°
2026-04-26 12:45 0.02928 32.44158 3788 ft 9 kts 352°
2026-04-26 12:46 0.02993 32.44149 3786 ft 10 kts 352°
2026-04-26 12:46 0.03063 32.44139 3783 ft 11 kts 352°
2026-04-26 12:46 0.03138 32.44128 3783 ft 11 kts 352°
2026-04-26 12:46 0.03219 32.44116 3788 ft 12 kts 352°
2026-04-26 12:47 0.03310 32.44106 3787 ft 14 kts 353°
2026-04-26 12:47 0.03409 32.44092 3783 ft 15 kts 350°
2026-04-26 12:47 0.03515 32.44078 3786 ft 16 kts 352°
2026-04-26 12:47 0.03629 32.44062 3786 ft 17 kts 352°
2026-04-26 12:48 0.03752 32.44044 3789 ft 19 kts 351°
2026-04-26 12:48 0.03898 32.44024 3782 ft 22 kts 352°
2026-04-26 12:48 0.04056 32.44002 3782 ft 23 kts 351°
2026-04-26 12:48 0.04186 32.43995 3786 ft 15 kts 32°
2026-04-26 12:49 0.04213 32.44079 3788 ft 8 kts 82°
2026-04-26 12:49 0.04219 32.44107 3784 ft 1 kts 71°
2026-04-26 12:49 0.04232 32.44126 3785 ft 7 kts 44°
2026-04-26 12:49 0.04301 32.44131 3782 ft 12 kts 353°
2026-04-26 12:50 0.04387 32.44118 3787 ft 13 kts 348°
2026-04-26 12:50 0.04449 32.44153 3786 ft 10 kts 79°
2026-04-26 12:50 0.04455 32.44193 3784 ft 1 kts 82°
2026-04-26 12:50 0.04456 32.44199 3786 ft 0 kts 82°